Location: Le Cremonine
(44.8500°N, 11.2667°E)
Time: 16:08:29
(UTC+00:00)

Daily predictions for brighter satellites

Satellite Brightness Start Highest point End
(mag) Time Altitude Azimuth Time Altitude Azimuth Time Altitude Azimuth
Cosmos 2221 3.9 15:59:39 10° SW 16:03:41 39° WNW 16:07:45 10° N
USA 308 4.2 16:01:36 10° NW 16:05:10 25° N 16:08:45 10° ENE
CZ-2C R/B 2.8 16:00:32 10° SSE 16:05:22 74° ENE 16:10:07 10° N
SL-16 R/B 3.4 16:01:30 10° N 16:05:49 21° NE 16:10:05 10° E
Cosmos 2082 Rocket 2.3 16:02:05 10° S 16:07:39 62° ESE 16:13:15 10° NNE
Cosmos 540 Rocket 3.5 16:03:33 10° SSW 16:08:39 90° NW 16:13:48 10° NNE
ARGOS 4.4 16:06:18 10° ESE 16:09:54 18° ENE 16:13:29 10° NNE
Sich 1 3.1 16:05:44 10° N 16:09:59 55° E 16:14:14 10° SSE
Cosmos 1500 Rocket 4.0 16:05:38 10° NNW 16:10:02 68° W 16:14:22 10° S
FengYun 1-2 T 4.2 16:07:37 10° SSE 16:13:07 65° ENE 16:18:36 10° N
COSMOS 2455 2.9 16:08:16 10° SSW 16:14:17 87° ESE 16:20:22 10° NNE
SMAP 3.2 16:11:23 10° SSE 16:15:52 51° ENE 16:20:24 10° N
NOAA 6 4.1 16:12:21 10° SSE 16:17:21 55° ENE 16:22:21 10° N
Cosmos 1933 3.6 16:16:52 10° SSW 16:20:53 74° W 16:24:55 10° N
Cosmos 1833 Rocket 3.5 16:15:39 10° SW 16:21:06 51° WNW 16:26:37 10° NNE
Cosmos 1805 Rocket 3.6 16:18:10 10° N 16:22:31 84° W 16:26:52 10° S
Cosmos 2278 3.7 16:17:31 10° NNW 16:23:11 61° ENE 16:28:48 10° SE
Cosmos 2333 Rocket 4.1 16:23:56 10° NNE 16:24:36 10° NNE 16:25:15 10° NE
Cosmos 1602 4.0 16:21:32 10° NNW 16:25:24 72° W 16:29:16 10° S
CZ-4B DEB 4.3 16:21:12 10° SE 16:26:31 52° ENE 16:31:49 10° N
USA 305 3.9 16:26:02 10° NW 16:29:48 30° NNE 16:32:51 14° ENE
CZ-2C R/B 3.6 16:26:49 10° NE 16:31:07 26° E 16:35:21 10° SSE
CZ-4B R/B 3.3 16:28:02 10° S 16:31:58 63° WSW 16:35:43 10° NNW
SL-24 R/B - RUBIN 2 4.1 16:28:04 10° NW 16:32:31 63° WSW 16:36:45 10° SSE
Cosmos 1500 3.1 16:31:55 10° N 16:35:40 85° W 16:39:23 10° S
Meteor 1-14 Rocket 4.3 16:30:12 10° N 16:36:02 63° ENE 16:41:56 10° SSE
Cosmos 44 Rocket 3.4 16:32:28 10° NNW 16:37:18 53° NE 16:41:58 10° SE
Meteor 2-16 Rocket 4.4 16:34:11 10° N 16:40:16 62° ENE 16:46:20 10° SSE
COSMOS 2406 4.1 16:35:13 10° SW 16:40:45 48° WNW 16:46:18 10° NNE
Cosmos 1814 Rocket 3.9 16:36:17 10° SSW 16:41:30 82° ESE 16:46:41 10° NNE
Cosmos 921 Rocket 3.5 16:38:53 10° SSE 16:42:44 36° E 16:45:57 14° NE
Cosmos 1570 Rocket 3.9 16:43:08 10° SSW 16:48:22 82° ESE 16:53:37 10° NNE
MOS 1-B Rocket 4.3 16:46:30 10° NNE 16:52:33 59° ESE 16:59:30 10° S
CZ-4B R/B 3.4 16:47:29 10° SE 16:52:36 46° ENE 16:57:41 10° N
CZ-2D R/B 3.1 16:51:08 10° SSE 16:54:56 68° ENE 16:58:44 10° N
Cosmos 2298 Rocket 4.1 16:50:52 10° NNW 16:56:05 52° ENE 17:01:16 10° SE
USA 267 3.3 16:50:26 15° NE 16:56:06 84° NW 17:02:39 10° WSW
MOS 1-B 4.3 16:51:42 10° SSE 16:57:26 69° ENE 17:03:11 10° N
Cosmos 1939 Rocket 3.9 16:53:39 10° S 16:57:38 50° W 17:01:36 10° NNW
ATLAS CENTAUR R/B 3.7 16:49:36 10° WSW 16:58:22 43° NW 17:01:31 16° NNE
Cosmos 1151 Rocket 3.1 16:56:24 10° S 17:00:44 80° W 17:05:07 10° N
Meteor 1-27 Rocket 4.4 16:56:11 10° SSE 17:00:56 31° E 17:04:00 18° NE
USA 306 3.5 16:58:18 10° NW 17:02:18 38° NNE 17:03:51 28° ENE
COSMO-SKYMED 1 2.9 16:59:10 16° NNE 17:02:26 43° E 17:06:34 10° S
Cosmos 1633 Rocket 3.0 16:58:15 10° N 17:02:40 90° WNW 17:07:04 10° S
Cosmos 1782 4.3 16:59:15 10° SW 17:02:57 36° WNW 17:06:40 10° N
APEX 3.2 16:59:42 10° S 17:03:23 47° ESE 17:04:23 34° ENE
Meteor 2-6 Rocket 4.1 16:58:02 10° S 17:03:44 73° E 17:09:17 10° NNE
Cosmos 1666 2.8 17:00:41 10° NNW 17:04:23 71° W 17:08:04 10° S
Landsat 5 4.1 17:05:03 29° E 17:05:39 30° E 17:09:08 10° SSE
Cosmos 2360 Rocket 3.1 17:02:08 10° N 17:06:57 28° NE 17:08:17 25° ENE
PAYLOAD B 4.2 17:01:53 10° SSE 17:07:30 87° ENE 17:13:08 10° NNW
ISS -1.3 17:04:54 10° W 17:07:41 24° SW 17:10:27 10° SSE
Cosmos 1900 4.5 17:03:18 10° SW 17:08:09 71° NW 17:11:52 17° NNE
Cosmos 1818 3.6 17:07:23 10° NW 17:12:53 83° WSW 17:18:19 10° SSE
Cosmos 2279 Rocket 4.2 17:10:33 10° SSW 17:16:44 73° W 17:22:58 10° N
CZ-2C R/B 3.3 17:13:53 10° SW 17:17:09 21° S 17:19:13 15° SE
Meteor 2-15 4.3 17:12:59 10° S 17:19:04 76° E 17:25:09 10° NNE
ATLAS 5 CENTAUR R/B 2.0 17:13:30 10° NW 17:19:20 43° NNE 17:19:38 42° NE
Cosmos 2266 Rocket 4.0 17:15:28 10° N 17:21:53 69° E 17:28:16 10° SSE
USA 307 3.2 17:18:51 10° NW 17:22:57 45° NNE 17:23:33 42° NE
CZ-4C R/B 3.6 17:16:44 10° NW 17:24:02 60° WSW 17:32:23 10° SSE
SL-08 RB Rocket 3.9 17:19:42 10° SE 17:24:08 48° ENE 17:28:33 10° N
Lacrosse 5 rocket 1.6 17:22:11 10° NW 17:26:07 66° SW 17:28:57 19° SE
SKYMED 3 4.4 17:23:34 20° NNE 17:26:37 79° ESE 17:30:57 10° S
USA 234 3.2 17:22:42 10° SE 17:29:16 89° SW 17:35:50 10° NW
ATLAS 2AS CENTAUR R/B 4.2 17:24:26 10° NNW 17:29:42 20° NNE 17:31:18 19° NNE
Cosmos 1933 Rocket 3.4 17:25:28 10° N 17:29:48 64° E 17:34:05 10° SSE
Cosmos 2322 Rocket 2.2 17:24:17 10° NNW 17:29:56 60° ENE 17:35:03 13° SE
Tiangong 3.4 17:28:40 10° SSW 17:30:10 16° S 17:30:10 16° S
Cosmos 1328 Rocket 4.3 17:26:29 10° SSW 17:30:50 54° WNW 17:35:13 10° N
Cosmos 2150 Rocket 4.0 17:26:27 10° NNW 17:31:40 86° WSW 17:36:56 10° SSE
Cosmos 1980 Rocket 4.3 17:28:00 10° NW 17:32:45 28° WSW 17:37:27 10° SSW
Cosmos 1470 Rocket 3.9 17:31:22 10° NNW 17:35:50 69° W 17:40:16 10° S
Cosmos 1544 3.0 17:32:18 10° N 17:35:56 80° W 17:39:32 10° S
Cosmos 1867 3.6 17:31:34 10° SSW 17:36:56 62° ESE 17:38:27 44° ENE
NOSS 3-3 (A) 4.1 17:31:49 10° S 17:37:09 46° ESE 17:38:22 41° E
NOSS 3-3 (C) 4.1 17:31:55 10° S 17:37:16 46° ESE 17:38:27 41° E
H-2A R/B 2.8 17:32:46 10° S 17:37:46 53° W 17:42:41 10° NNW
Cosmos 1125 Rocket 3.5 17:32:38 10° NNW 17:37:54 83° WSW 17:43:11 10° SSE
X-37B 1.7 17:35:48 10° WSW 17:37:49 37° SW 17:37:49 37° SW
DEBRIS 3.5 17:36:23 10° SSW 17:38:35 39° SSE 17:38:35 39° SSE
Okean O Rocket 1.6 17:35:04 10° SSE 17:39:32 85° WSW 17:44:01 10° NNW
Meteor 1-10 Rocket 4.3 17:35:07 10° SSW 17:40:53 77° W 17:46:33 10° N
GEOS 3 Rocket 4.4 17:41:55 33° NNE 17:41:55 33° NNE 17:46:04 10° NNW
USA 32 3.9 17:37:37 10° S 17:42:48 72° E 17:46:22 21° NNE
Meteor 1-11 Rocket 3.7 17:37:23 10° N 17:43:05 89° E 17:48:52 10° S
USA 308 3.1 17:41:29 10° NW 17:45:21 57° N 17:45:21 57° N
ARGOS 3.3 17:44:11 10° S 17:49:35 72° WSW 17:55:00 10° NNW
SL-16 R/B 2.3 17:44:51 10° NNW 17:50:31 74° WSW 17:56:09 10° SSE
SKYMED 2 4.1 17:47:47 21° N 17:50:32 58° WNW 17:54:48 10° SSW
Cosmos 2082 Rocket 4.1 17:47:37 10° WSW 17:52:11 24° NW 17:56:46 10° N
deb Chang Zheng 4 4.4 17:50:59 10° S 17:55:09 49° W 17:59:22 10° NNW
Cosmos 1241 Rocket 4.3 17:54:04 10° SSW 18:00:26 79° ESE 18:01:58 54° NE
Feng Yun 1-1 Rocket 4.3 17:58:29 10° SSE 18:04:25 85° WSW 18:10:17 10° NNW
USA 305 3.7 18:05:47 10° NW 18:08:52 47° WNW 18:08:52 47° WNW
Cosmos 2333 Rocket 3.4 18:05:01 10° NNW 18:08:05 28° N 18:08:05 28° N
CZ-2C R/B 3.6 18:06:50 11° N 18:11:34 43° WNW 18:16:25 10° SW
Aureole 3 Rocket 4.0 18:12:43 10° SSW 18:17:12 61° WNW 18:23:34 10° N
Cosmos 2219 Rocket 3.8 18:13:01 10° NNW 18:15:05 21° N 18:15:05 21° N
USA 267 4.1 18:37:47 37° N 18:38:40 39° NNW 18:44:36 10° W
Cosmos 2360 Rocket 3.1 18:45:45 10° NW 18:50:08 45° WNW 18:50:08 45° WNW
CZ-2C R/B 4.4 18:53:07 10° SW 18:53:23 11° SW 18:53:23 11° SW
Cosmos 2322 Rocket 4.4 19:09:15 10° NW 19:13:29 22° W 19:17:09 12° SW
ATLAS 2AS CENTAUR R/B 4.4 19:15:42 10° NNW 19:18:44 25° NNW 19:18:44 25° NNW
